Terminal Aerodrome Forecast
Issued by NWS Greer, SC

Home | Current Version | Previous Version | Text Only | Print | Product List | Glossary On
Versions: 1 2 3 4 5 6 7 8 9 10 11 12 13 14 15 16 17 18 19 20 21 22 23 24 25 26 27 28 29
000
FTUS42 KGSP 191739
TAFGSP
TAF
KGSP 191739Z 1918/2018 14010G20KT P6SM SHRA VCTS OVC008CB
      TEMPO 1918/1922 VRB10G20KT 2SM TSRA OVC004CB
     FM192200 19010G20KT 3SM SHRA VCTS OVC008CB
     FM200000 20009KT P6SM SHRA OVC008
     FM200300 20009KT P6SM OVC003
     FM201000 21008KT 4SM BR BKN003 OVC015
     FM201600 22014G22KT P6SM VCTS BKN015CB=

USA.gov is the U.S. government's official web portal to all federal, state and local government web resources and services.